TimeCDT,TemperatureF,Dew PointF,Humidity,Sea Level PressureIn,VisibilityMPH,Wind Direction,Wind SpeedMPH,Gust SpeedMPH,PrecipitationIn,Events,Conditions,WindDirDegrees,DateUTC
12:52 AM,46.0,21.9,39,30.18,10.0,Calm,Calm,-,N/A,,Clear,0,2013-05-10 05:52:00
1:52 AM,46.9,21.9,37,30.16,10.0,Calm,Calm,-,N/A,,Clear,0,2013-05-10 06:52:00
2:52 AM,41.0,23.0,49,30.13,10.0,South,6.9,-,N/A,,Clear,190,2013-05-10 07:52:00
3:52 AM,44.1,23.0,43,30.12,10.0,South,5.8,-,N/A,,Clear,170,2013-05-10 08:52:00
4:52 AM,43.0,26.1,51,30.09,10.0,South,5.8,-,N/A,,Clear,170,2013-05-10 09:52:00
5:52 AM,43.0,26.1,51,30.07,10.0,South,6.9,-,N/A,,Clear,190,2013-05-10 10:52:00
6:52 AM,39.9,26.1,58,30.05,10.0,SSW,4.6,-,N/A,,Clear,210,2013-05-10 11:52:00
7:52 AM,46.9,33.1,59,30.06,10.0,WSW,11.5,-,N/A,,Clear,240,2013-05-10 12:52:00
8:52 AM,51.1,36.0,56,30.08,10.0,WSW,9.2,-,N/A,,Clear,250,2013-05-10 13:52:00
9:52 AM,61.0,36.0,39,30.08,10.0,NW,21.9,28.8,N/A,,Clear,320,2013-05-10 14:52:00
10:52 AM,57.9,37.0,46,30.12,4.0,NNW,29.9,40.3,N/A,,Haze,340,2013-05-10 15:52:00
11:52 AM,55.9,39.0,53,30.17,9.0,North,24.2,32.2,N/A,,Partly Cloudy,360,2013-05-10 16:52:00
12:52 PM,57.0,32.0,39,30.20,10.0,North,25.3,35.7,N/A,,Partly Cloudy,360,2013-05-10 17:52:00
1:52 PM,61.0,28.9,30,30.21,10.0,NNW,25.3,34.5,N/A,,Clear,340,2013-05-10 18:52:00
2:52 PM,61.0,27.0,27,30.23,10.0,NNW,23.0,35.7,N/A,,Clear,340,2013-05-10 19:52:00
3:52 PM,61.0,27.0,27,30.24,10.0,North,25.3,34.5,N/A,,Clear,350,2013-05-10 20:52:00
4:52 PM,61.0,25.0,25,30.25,10.0,NNW,23.0,34.5,N/A,,Clear,340,2013-05-10 21:52:00
5:52 PM,60.1,21.0,22,30.27,10.0,NNW,23.0,28.8,N/A,,Clear,330,2013-05-10 22:52:00
6:52 PM,57.9,19.0,22,30.29,10.0,NNW,23.0,34.5,N/A,,Clear,340,2013-05-10 23:52:00
7:52 PM,55.0,18.0,23,30.30,10.0,NNW,19.6,27.6,N/A,,Clear,340,2013-05-11 00:52:00
8:52 PM,52.0,23.0,32,30.30,10.0,North,12.7,-,N/A,,Clear,350,2013-05-11 01:52:00
9:52 PM,46.0,24.1,42,30.32,10.0,NNW,9.2,-,N/A,,Clear,330,2013-05-11 02:52:00
10:52 PM,44.1,24.1,45,30.35,10.0,NNW,11.5,-,N/A,,Clear,340,2013-05-11 03:52:00
11:52 PM,42.1,26.1,53,30.38,10.0,North,10.4,-,N/A,,Clear,350,2013-05-11 04:52:00